Location: Unspecified
(0.0000°N, 0.0000°E)
Time: 01:25:18
(UTC+00:00)

Vanguard 1 - Pass Details

Date: 22 November 2019
Orbit: 652 x 3832 km, 34.3° (Epoch: 10 December)

Event Time Altitude Azimuth Distance (km) Brightness Sun altitude
Rises 01:03:44 0° 221° (SW) 6,616 14.3 -62.4°
Reaches altitude 10° 01:09:42 10° 206° (SSW) 6,085 14.1 -61.3°
Maximum altitude 01:24:34 23° 160° (SSE) 5,768 14.1 -58.6°
Drops below altitude 10° 01:41:01 10° 115° (ESE) 6,832 14.7 -55.4°
Sets 01:48:14 0° 101° (ESE) 7,591 15.1 -54.0°
